Regional Weather Roundup
Issued by NWS

Home | Current Version | Previous Version | Graphics & Text | Print | Product List | Glossary Off
Versions: 1 2 3 4 5 6 7 8 9 10 11 12 13 14 15 16 17 18 19 20 21 22 23 24 25 26 27 28 29 30 31 32 33 34 35 36 37 38 39 40 41 42 43 44 45 46 47 48 49 50

000
ASUS43 KMKX 022100
RWRWI

WISCONSIN REGIONAL WEATHER ROUNDUP
NATIONAL WEATHER SERVICE MILWAUKEE/SULLIVAN WI
400 PM CDT THU JUL 02 2015

NOTE: "FAIR" INDICATES FEW OR NO CLOUDS BELOW 12,000 FEET WITH NO
SIGNIFICANT WEATHER AND/OR OBSTRUCTIONS TO VISIBILITY.

WIZ001-002-006>008-014>016-023>028-022200-
NORTHWEST WISCONSIN

CITY           SKY/WX    TMP DP  RH WIND       PRES   REMARKS
SUPERIOR ARPT  MOSUNNY   77  60  54 SW8       29.97F
ASHLAND        SUNNY     77  59  53 SW8       29.98F
HAYWARD        SUNNY     75  50  41 S6        30.01F
SIREN          SUNNY     77  48  35 CALM      30.01S
CUMBERLAND     SUNNY     72  48  43 SE3       30.02F
RICE LAKE      SUNNY     74  50  42 SW5       30.03S
CHETEK         SUNNY     75  54  47 S5        30.02S
LADYSMITH      SUNNY     75  53  45 S6        30.03F
EAU CLAIRE     NOT AVBL
MENOMONIE      SUNNY     76  53  45 S3        30.01S
NEW RICHMOND   SUNNY     75  54  48 SE3G10    30.02S
OSCEOLA        SUNNY     76  51  41 SE5       30.03F
$$

WIZ003>005-009-010-017-018-022200-
NORTH CENTRAL WISCONSIN

CITY           SKY/WX    TMP DP  RH WIND       PRES   REMARKS
MANITOWISH WTR MOSUNNY   74  52  46 CALM      30.02F
ARBOR VITAE    MOSUNNY   76  53  44 SE6       30.02F
WOODRUFF       MOSUNNY   76  53  44 SE6       30.02F
RHINELANDER    SUNNY     76  49  38 W5        30.03F
EAGLE RIVER    PTSUNNY   73  48  40 SW5       30.02F
LAND O LAKES   SUNNY     74  48  39 W3        30.03F
PHILLIPS       MOSUNNY   74  51  44 S6        30.02S
TOMAHAWK       SUNNY     74  51  43 SE3       30.03F
MEDFORD        SUNNY     72  53  49 S6        30.03S
MERRILL        SUNNY     74  51  44 S8        30.03F
$$

WIZ029-030-035-036-043>047-022200-
CENTRAL WISCONSIN

CITY           SKY/WX    TMP DP  RH WIND       PRES   REMARKS
WAUSAU         SUNNY     76  47  35 S10       30.01F
MOSINEE        SUNNY     72  48  43 VRB6      30.04S
MARSHFIELD     SUNNY     74  49  41 E9        30.03S
STEVENS POINT  SUNNY     71  47  42 SE3       30.03F
WAUPACA        SUNNY     76  46  34 E6        30.03S
WAUTOMA        NOT AVBL
WISC RAPIDS    SUNNY     74  45  35 VRB6      30.03F
CAMP DOUGLAS   NOT AVBL
$$

WIZ011>013-019>022-031-037>040-048>050-022200-
NORTHEAST WISCONSIN

CITY           SKY/WX    TMP DP  RH WIND       PRES   REMARKS
ANTIGO         SUNNY     71  48  43 CALM      30.04F
SHAWANO        SUNNY     75  46  34 SE7       30.03F
OCONTO         SUNNY     72  50  45 SE5       30.03F
STURGEON BAY   SUNNY     68  45  42 SE6       30.06F
GREEN BAY      SUNNY     73  48  41 E8        30.03F
MANITOWOC      NOT AVBL
APPLETON       SUNNY     72  39  30 E7        30.03F
CLINTONVILLE   SUNNY     73  45  35 SE6       30.02F
OSHKOSH        SUNNY     72  48  42 NE7       30.02F
$$

WIZ032>034-041-042-053>061-022200-
SOUTHWEST WISCONSIN

CITY           SKY/WX    TMP DP  RH WIND       PRES   REMARKS
LA CROSSE      SUNNY     75  54  47 S6        30.00F
SPARTA         SUNNY     75  47  36 E5        30.02F
VIROQUA        SUNNY     73  51  46 E7        30.02F
BOSCOBEL       SUNNY     74  51  44 VRB6      30.00F
PRAIRIE DU CHI SUNNY     72  47  41 E7        29.99F
PLATTEVILLE    MOSUNNY   70  48  44 E10       30.00F
$$

WIZ056-057-062-063-064-067-068-022200-
SOUTH CENTRAL WISCONSIN

CITY           SKY/WX    TMP DP  RH WIND       PRES   REMARKS
REEDSBURG      SUNNY     71  51  49 E6        30.01F
BARABOO/DELLS  SUNNY     71  48  44 E7        30.02S
LONE ROCK      NOT AVBL
MINERAL POINT  SUNNY     72  45  37 NE6       30.02S
MADISON        MOSUNNY   72  50  45 NE6       30.01S
MIDDLETON      SUNNY     72  46  39 NE8       30.02S
WATERTOWN      SUNNY     71  48  44 E10       30.01S
MONROE         SUNNY     68  46  45 E6        30.01S
JANESVILLE     SUNNY     73  48  40 E10       29.99F
$$

WIZ051-052-058>065-066-070>072-022200-
SOUTHEAST WISCONSIN

CITY           SKY/WX    TMP DP  RH WIND       PRES   REMARKS
MILWAUKEE      MOSUNNY   63  49  60 NE13      30.03S
WAUKESHA       SUNNY     66  46  48 NE10      30.03S
MILWAUKEE/TIMM SUNNY     64  46  52 NE8G16    30.03F
RACINE         SUNNY     64  49  57 NE12      30.04F
BURLINGTON     SUNNY     68  49  50 E10       30.01S
KENOSHA        SUNNY     67  54  63 NE13      30.01F
FOND DU LAC    SUNNY     73  45  36 SE10      30.02F
SHEBOYGAN      SUNNY     67  48  50 NE9       30.04S
WEST BEND      SUNNY     68  45  42 E8        30.03S
JUNEAU         SUNNY     71  48  44 E7        30.02F
$$

LSZ147-162-022200-
LAKE SUPERIOR

STATION/POSITION TIME  TEMP    WIND        PRES    WAVE
                       AIR SEA DIR/SP/G            HT/PER
                 (UTC) (F)     (DEG/KT/KT) (MB)    (FT/S)
W MID LAKE BUOY  1950   48 39  190/  8/  8 1015.3F   1
DEVILS ISLAND    2000   69     230/ 10/ 12 1014.8F
SAXON HARBOR     1900   76     240/  2/ 10 1015.6
$$

LMZ867-665-643>646-022200-
LAKE MICHIGAN

STATION/POSITION TIME  TEMP    WIND        PRES    WAVE
                       AIR SEA DIR/SP/G            HT/PER
                 (UTC) (F)     (DEG/KT/KT) (MB)    (FT/S)
CHAMBERS ISLAND  2000   70     340/  3/  4 1017.6F
N MID LAKE BUOY  1950   56 53   CALM  /  2 1018.1F   0
NORTHPORT PIER   2000   60     130/  7/  8 1017.6F
SISTER BAY       2014   75     340/  4/  6   N/A
ALGOMA LAKESHORE 2040           90/  7/  8   N/A
KEWAUNEE LAKESHO 2000   62      40/  3/  7 1017.1F
SHEBOYGAN LAKESH 2000   57      10/ 10/ 11 1017.9F
PORT WASHINGTON  2000   60      50/  9/ 10 1017.9F
ATWATER BUOY     2000   57      30/ 12/ 16 1018.3F
MILWAUKEE LAKESH 2000   57      40/ 12/ 13   N/A
KENOSHA   LAKESH 2000   57      30/ 15/ 18 1016.3F
$$

TC  - TEMPERATURE IN CELSIUS
VSB - VISIBILITY IN STATUTE MILES
WCI - WIND CHILL INDEX
HX  - HEAT INDEX



USA.gov is the U.S. government's official web portal to all federal, state and local government web resources and services.